Preview of NWS' New Version of Forecast
This preview is not operational and should not be used for support decisions.

Regional Weather Roundup (RWR)

Issued by Lubbock, TX (LUB)

                            
000
ASUS44 KLUB 200710
RWRLUB
WEST TEXAS WEATHER ROUNDUP
NATIONAL WEATHER SERVICE LUBBOCK TX
200 AM CDT MON MAY 20 2019

NOTE: "FAIR" INDICATES FEW OR NO CLOUDS BELOW 12,000 FEET WITH NO
SIGNIFICANT WEATHER AND/OR OBSTRUCTIONS TO VISIBILITY.

TXZ004-006>008-010-012-014-016-OKZ002-200800-
TEXAS PANHANDLE/OKLAHOMA PANHANDLE
  
CITY           SKY/WX    TMP DP  RH WIND       PRES   REMARKS
AMARILLO       PTCLDY    58  50  75 SE21      29.87F                  
BORGER         PTCLDY    63  50  62 SE18G30   29.86F                  
CANADIAN       PTCLDY    60  55  83 SE12      29.90F                  
DALHART        MOCLDY    57  48  72 SE14      29.88S                  
DUMAS          CLOUDY    56  48  74 SE16      29.87F                  
GUYMON         CLOUDY    59  49  69 SE9       29.87F                  
HEREFORD       CLEAR     59  53  80 SE10G20   29.88F                  
PAMPA          PTCLDY    60  53  77 SE22G28   29.89S                  
PERRYTON       PTCLDY    60  53  77 SE17      29.88F                  
$$

TXZ026-029-035-045-048-200800-
SOUTHERN PANHANDLE/SOUTH PLAINS/ROLLING PLAINS
  
CITY           SKY/WX    TMP DP  RH WIND       PRES   REMARKS
CHILDRESS      PTCLDY    64  56  75 E10       29.88F                  
SEMINOLE       CLEAR     64  53  66 SE8       29.86F                  
LUBBOCK        PTCLDY    65  53  65 SE18      29.85F                  
PLAINVIEW      CLEAR     58  52  79 SE12      29.86F                  
SNYDER         CLEAR     68  58  69 SE12      29.83F                  
$$

TXZ052-054-060>062-072-078-127-140-154-169-200800-
PERMIAN BASIN/CONCHO VALLEY/BIG COUNTRY/EDWARDS PLATEAU  
  
CITY           SKY/WX    TMP DP  RH WIND       PRES   REMARKS
ABILENE        CLEAR     70  61  73 SE13      29.84F                  
BIG SPRING     CLEAR     69  59  69 SE17G23   29.83F                  
BRADY          CLOUDY    75  72  88 SE13G22   29.86S                  
BROWNWOOD      CLOUDY    72  66  83 E8        29.85F                  
JUNCTION       MOCLDY    75  71  87 SE3       29.87S                  
MIDLAND        CLEAR     71  62  73 SE14G22   29.80F                  
ODESSA         CLEAR     70  59  68 SE16      29.80F                  
SAN ANGELO     PTCLDY    68  64  87 E7        29.83F                  
SONORA         PTCLDY    75  70  83 SE10      29.88F                  
SWEETWATER     PTCLDY    72  62  72 E13G21    29.86F                  
WINK           CLOUDY    76  63  64 SE21G31   29.73F                  
$$

TXZ055-058-074-075-080-082-200800-
FAR WEST/SOUTHWEST MOUNTAINS/TRANS PECOS
  
CITY           SKY/WX    TMP DP  RH WIND       PRES   REMARKS
ALPINE         PTCLDY    69  62  78 S9        29.88F                  
DRYDEN           N/A     75  70  84 E17G33    29.75F                  
EL PASO        CLOUDY    78  25  14 SW10      29.78F                  
FORT STOCKTON  CLEAR     74  66  76 SE29G43   29.73F                  
GUADALUPE PASS CLOUDY    67  56  67 E14       29.88S                  
MARFA          CLEAR     64  59  83 CALM      29.87F                  
PECOS          CLEAR     76  65  70 E18G25    29.72F                  
PRESIDIO       FAIR      80  62  53 NE12G18   29.72S                  
$$

TXZ014-016-019-021>030-083-200800
TEXAS TECH WEST TEXAS MESONET/TEXAS PANHANDLE/NORTHERN SOUTH PLAINS
  
CITY           SKY/WX    TMP DP  RH WIND       PRES   REMARKS
ABERNATHY 5ENE   N/A     62  52  69 SE17      29.87F                  
AMARILLO 9NNE    N/A     59  51  75 SE23      29.84F                  
AMARILLO 7SSE    N/A     58  51  77 SE16      29.89F                  
AMHERST 1NE      N/A     62  51  67 SE16      29.85F                  
BOOTLEG 11WNW    N/A     56  49  75 SE14      29.88F                  
CANADIAN 6E      N/A     57  54  87 E12       29.88F                  
CAPROCK CYN SP   N/A     58  53  85 S3        29.89F                  
CHILDRESS 2NNE   N/A     62  56  79 E12       29.87F                  
CLARENDON 2WSW   N/A     61  52  72 E13       29.90F                  
CLAUDE 12SW      N/A     60  52  74 SE14      29.90S                  
DIMMITT 2NE      N/A     58  51  77 SE15      29.87F                  
FLOYDADA 2NNE    N/A     59  53  80 E8        29.87F                  
FRIONA 2NE       N/A     58  50  76 SE17      29.86F                  
GOODLETT 3W      N/A     61  56  85 E8        29.86F                  
HART 3N          N/A     58  52  81 E15       29.87F                  
HEREFORD 2NW     N/A     58  50  74 SE12      29.86F                  
MCLEAN 1E        N/A     60  53  78 SE14      29.89F                  
MEMPHIS 1NE      N/A     62  55  78 E5        29.88F                  
MULESHOE 2SSW    N/A     61  51  70 E13       29.85F                  
OLTON 6S         N/A     62  52  71 SE15      29.86S                  
PALO DURO SP     N/A     60  51  72 SE14      29.90F                  
PAMPA 2E         N/A     57  51  80 SE18      29.89F                  
PLAINVIEW 1S     N/A     59  54  82 E7        29.86F                  
SILVERTON 7ESE   N/A     57  52  82 E14       29.89F                  
TULIA 2ENE       N/A     57  51  80 E10       29.88F                  
TURKEY 2WSW      N/A     61  54  77 E7        29.87F                  
UMBARGER 3NNE    N/A     57  52  81 SE18      29.88F                  
$$

TXZ033>036-039>041-045>048-200800
TEXAS TECH WEST TEXAS MESONET/SOUTH PLAINS  
  
CITY           SKY/WX    TMP DP  RH WIND       PRES   REMARKS
AIKEN 3WSW       N/A     60  53  79 SE13      29.89S                  
ANDREWS 2NE      N/A     69  57  65 SE13      29.80F                  
ANTON 6SSW       N/A     64  51  63 E17       29.84F                  
BROWNFIELD 2S    N/A     65  52  60 E15       29.84S                  
DENVR CTY 7WNW   N/A     63  49  60 SE13      29.83F                  
GAIL 2ESE        N/A     65  53  64 E6        29.82F                  
LAMESA 2SE       N/A     67  55  66 E14       29.82F                  
LUBBOCK 3WNW     N/A     64  52  65 E13       29.85F                  
MORTON 1ENE      N/A     63  49  59 SE14      29.84F                  
ODONNELL 1N      N/A     66  50  57 E13       29.83F                  
PLAINS 3N        N/A     63  50  61 E14       29.84F                  
RALLS 1SE        N/A     62  52  69 E15       29.88S                  
REESE CENTER     N/A     64  52  64 SE18      29.84F                  
SEAGRAVES 1SW    N/A     65  52  61 E10       29.83S                  
SEMINOLE 2NNE    N/A     64  51  62 E10       29.82F                  
SLATON 2NE       N/A     62  55  75 E14       29.86F                  
SNYDER 3E        N/A     66  57  73 E13       29.82F                  
SUNDOWN 8SW      N/A     62  50  64 E12       29.84F                  
TAHOKA 3NNE      N/A     63  54  72 E10       29.84F                  
WOLFFORTH 6SSW   N/A     62  53  71 E13       29.85F                  
$$

TXZ031-032-036>038-042>044-200800-
TEXAS TECH WEST TEXAS MESONET/ROLLING PLAINS 
  
CITY           SKY/WX    TMP DP  RH WIND       PRES   REMARKS
ASPERMONT 3NE    N/A     64  58  79 E6        29.83F                  
FLUVANNA 3WNW    N/A     66  55  66 E14       29.83F                  
GRAHAM 5SSW      N/A     66  54  66 E10       29.84S                  
GUTHRIE 10WSW    N/A     59  55  87 NE3       29.85F                  
HASKELL 1NW      N/A     66  57  72 E9        29.83F                  
JAYTON 1SSE      N/A     64  56  77 E9        29.83F                  
KNOX CITY 3NW    N/A     67  58  72 E7        29.85F                  
LK A HENRY 1NW   N/A     64  57  78 NE6       29.83F                  
NORTHFIELD 1S    N/A     60  54  81 E6        29.86F                  
ODELL 4ENE       N/A     62  59  89 E8        29.89F                  
PADUCAH 10SW     N/A     61  56  84 E5        29.86F                  
POST 1NE         N/A     61  56  84 NE5       29.84F                  
RRING SPRGS 3N   N/A     61  56  84 SE7       29.87F                  
SEYMOUR 3NW      N/A     66  58  76 E8        29.85F                  
SPUR 1W          N/A     64  55  72 E7        29.85S                  
WEINERT 2NNE     N/A     67  57  71 E10       29.85F                  
WHITE RVR 6NE    N/A     64  54  69 E10       29.85F                  
$$

TXZ052-054-060>062-072-078-127-140-154-169-200800-
TEXAS TECH WEST TEXAS MESONET/PERMIAN BASIN/
CONCHO VALLEY/BIG COUNTRY/EDWARDS PLATEAU
  
CITY           SKY/WX    TMP DP  RH WIND       PRES   REMARKS
COYANOSA 2N      N/A     76  67  72 SE17      29.74S                  
JUNCTION 1SSW    N/A     75  70  86 SE5       29.86F                  
MERTZON 3NNE     N/A     72  69  91 SE7       29.83F                  
SAN ANGELO 7NW   N/A     69  61  75 E10       29.83F                  
STRLNG CT 4WSW   N/A     69  62  77 E14       29.83F                  
ST LAWRNCE 5SW   N/A     70  63  79 SE18      29.80F                  
SWEETWATR 11SW   N/A     69  62  78 SE21      29.84F                  
WALL 1E          N/A     71  67  88 E6        29.84F                  
$$

TXZ055-058-074-075-080-082-200800-
TEXAS TECH WEST TEXAS MESONET/FAR WEST/SOUTHWEST MOUNTAINS/TRANS PECOS
  
CITY           SKY/WX    TMP DP  RH WIND       PRES   REMARKS
PRSMN GAP BBNP   N/A     76  65  67 NE8       29.75F                  
GUADLPE MTN NP   N/A     64  56  73 N5        29.90F                  
$$